{"data":{"norad_id":55405,"intl_designator":"2023-014Q","name":"STARLINK-5623","alt_names":[],"object_type":"PAYLOAD","status":"ACTIVE","operator":null,"country":"US","launch_date":"2023-01-31","launch_site_code":"AFWTR","launch_vehicle":null,"mission":null,"orbit_class":"UNKNOWN","rcs_meters":null,"size_class":null,"mass_kg":null,"dimensions":null,"purposes":["comms"],"wikipedia_slug":null,"has_3d_model":false,"image_url":null,"decayed_at":null,"tle_current":{"epoch":"2026-09-20T11:45:16.082208Z","epoch_age_seconds":97541,"freshness":"FRESH","line1":"1 55405U 23014Q   26263.48976947  .00000206  00000+0  25048-4 0  9992","line2":"2 55405  69.9979 293.3347 0003575 269.4775  90.5975 14.98328143201237","mean_motion":14.98328143,"eccentricity":0.0003575,"inclination_deg":69.9979,"raan_deg":293.3347,"arg_perigee_deg":269.4775,"mean_anomaly_deg":90.5975,"bstar":2.5048e-5,"rev_number":20123,"period_min":96.107118238918,"perigee_km":569.57693755816,"apogee_km":574.54632958116,"semimajor_km":6950.1986335697,"source":"CELESTRAK","updated_at":"2026-09-21T09:00:33.216342Z"}}}